This is the latest recevied weather packets stored in our database for station/object KD8DNS. If no packets are shown the sender has not sent any weather packets the latest 10 day(s).
| Time | Temp. | Humidity | Pressure | Rain* | Wind** | Luminosity | Snow |
|---|---|---|---|---|---|---|---|
| 1788460534 | 36.11° C | 49% | 1019 hPa | 0 mm | - | 642 W/m² | - |
| 1788460229 | 36.11° C | 49% | 1019 hPa | 0 mm | - | 638 W/m² | - |
| 1788459927 | 35.56° C | 51% | 1019 hPa | 0 mm | - | 645 W/m² | - |
| 1788459625 | 35.56° C | 50% | 1019 hPa | 0 mm | - | 649 W/m² | - |
| 1788459323 | 35.56° C | 50% | 1019.1 hPa | 0 mm | - | 651 W/m² | - |
| 1788459023 | 36.11° C | 51% | 1018.9 hPa | 0 mm | - | 644 W/m² | - |
| 1788458718 | 36.11° C | 51% | 1019.2 hPa | 0 mm | - | 610 W/m² | - |
| 1788458418 | 36.11° C | 52% | 1019.1 hPa | 0 mm | - | 593 W/m² | - |
| 1788458117 | 35.56° C | 51% | 1019.3 hPa | 0 mm | - | 633 W/m² | - |
| 1788457816 | 35.56° C | 51% | 1019.2 hPa | 0 mm | - | 668 W/m² | - |
| 1788457511 | 35.56° C | 52% | 1019.4 hPa | 0 mm | - | 620 W/m² | - |
| 1788457206 | 35.56° C | 52% | 1019.5 hPa | 0 mm | - | 655 W/m² | - |
| 1788456901 | 35° C | 54% | 1019.6 hPa | 0 mm | - | 656 W/m² | - |
| 1788456597 | 35.56° C | 52% | 1019.5 hPa | 0 mm | - | 614 W/m² | - |
| 1788456292 | 35° C | 53% | 1019.4 hPa | 0 mm | - | 605 W/m² | - |
| 1788455987 | 35° C | 54% | 1019.7 hPa | 0 mm | - | 638 W/m² | - |
| 1788455677 | 35° C | 52% | 1019.8 hPa | 0 mm | - | 651 W/m² | - |
| 1788455376 | 35° C | 52% | 1019.6 hPa | 0 mm | - | 611 W/m² | - |
| 1788455071 | 35° C | 53% | 1019.8 hPa | 0 mm | - | 641 W/m² | - |
| 1788454769 | 35° C | 52% | 1019.9 hPa | 0 mm | - | 665 W/m² | - |
| 1788454464 | 35° C | 53% | 1019.6 hPa | 0 mm | - | 631 W/m² | - |
| 1788454159 | 35° C | 53% | 1019.9 hPa | 0 mm | - | 622 W/m² | - |
| 1788453854 | 35° C | 54% | 1019.9 hPa | 0 mm | - | 589 W/m² | - |
| 1788453554 | 35° C | 53% | 1019.9 hPa | 0 mm | - | 582 W/m² | - |
| 1788453250 | 34.44° C | 56% | 1019.9 hPa | 0 mm | - | 614 W/m² | - |
* Rain latest hour (hover to see other rain measurements)
** Current wind speed in m/s (hover to see current wind gust speed)